Home > Weather > Oviedo > Past weeks

Flag for Spain Past Weather in Oviedo, Spain — Yesterday and Last 2 Weeks

Now
56 °F

Cool.


Feels Like: 56 °F
Forecast: 48 / 67 °F
Wind: 3 mph from Southeast

Location: Oviedo

Current Time: May 28, 2016 at 4:15:00 AM

Latest Report: May 28, 2016 at 3:00 AM


Visibility: 4 mi

Pressure: 29.95 "Hg

Humidity: 99%

Dew Point: 56 °F

Location of OviedoLocation

Past Weather in Oviedo — Graph

°F

Oviedo Temperature Yesterday

Maximum temperature yesterday: 69 °F (at 2:00 PM)
Minimum temperature yesterday: 53 °F (at 7:00 AM)
Average temperature yesterday: 59 °F

High & Low Weather Summary for the Past Weeks

 TemperatureHumidityPressure
High76 °F (May 20, 6:00 PM)100% (May 13, 3:00 AM)30.32 "Hg (May 13, 3:00 AM)
Low46 °F (May 23, 7:00 AM)44% (May 20, 7:00 PM)29.73 "Hg (May 24, 3:00 PM)
Average58 °F84%30.06 "Hg
* Reported May 13 3:00 AM — May 28 3:00 AM, Oviedo, Weather by CustomWeather, © 2016

Note: Actual official high and low records may vary slightly from our data, if they occured in-between our weather recording intervals... More about our weather records

Advertising

Oviedo Weather History for the Previous 24 Hours

Scroll right to see more
 ConditionsComfort  
Time TempWeatherWind HumidityBarometerVisibility
3:00 AM
Sat, May 28
56 °FCool.3 mph99%29.95 "Hg4 mi
2:00 AM57 °FOvercast.2 mph100%29.97 "Hg9 mi
1:00 AM56 °FCool.2 mph100%29.98 "Hg2 mi
12:00 AM57 °FDrizzle. Overcast.5 mph100%29.99 "Hg0 mi
11:00 PM
Fri, May 27
58 °FOvercast.1 mph96%29.99 "Hg9 mi
10:00 PM57 °FLight rain. Overcast.2 mph96%29.98 "Hg9 mi
9:00 PM58 °FRain. Cloudy.6 mph98%29.97 "Hg1 mi
8:00 PM60 °FThunderstorms. Overcast.2 mph88%29.94 "Hg11 mi
7:00 PM63 °FMild.2 mph70%29.93 "Hg12 mi
6:00 PM64 °FMild.2 mph74%29.92 "Hg12 mi
5:00 PM65 °FOvercast.7 mph70%29.91 "Hg12 mi
4:00 PM67 °FMild.5 mph73%29.90 "Hg12 mi
3:00 PM67 °FMild.5 mph72%29.89 "Hg12 mi
2:00 PM69 °FPartly sunny.1 mph65%29.88 "Hg12 mi
1:00 PM67 °FMild.3 mph71%29.89 "Hg12 mi
12:00 PM65 °FMild.3 mph70%29.90 "Hg12 mi
11:00 AM62 °FPassing clouds.2 mph77%29.91 "Hg12 mi
10:00 AM58 °FCool.2 mph86%29.93 "Hg9 mi
9:00 AM58 °FCool.1 mph86%29.93 "Hg9 mi
8:00 AM53 °FOvercast.1 mph96%29.93 "Hg11 mi
7:00 AM53 °FCool.No wind95%29.93 "Hg9 mi
6:00 AM53 °FCool.2 mph96%29.93 "Hg8 mi
5:00 AM53 °FPassing clouds.2 mph95%29.93 "Hg10 mi
4:00 AM54 °FCool.1 mph94%29.93 "Hg11 mi
Weather by CustomWeather, © 2016

See weather overviewHow to use our weather pages